Powrót do katalogu

SL-16 DEB

AktywnyLEO
NORAD 22295·DEBRIS·🇷🇺 Russia

Wystrzelony Dec 25, 1992 z Baikonur Cosmodrome

Loading…

Następne Przeloty (najbliższe 24 godziny)

TLE

ŚwieżeSource: Space-Track

Epoka: Sep 14, 2026, 13:57 UTC

1 22295U 92093K   26257.58154142  .00000094  00000-0  80726-4 0  9995
2 22295  71.0084 339.6637 0099151 290.5237 132.8329 14.07103132729730

Śledź SL-16 DEB w czasie rzeczywistym z AllMySat

Download on the App Store